PUUANAHULU HI US current weather conditions

sailwx.info

Wind from 103 at 4 knots gusting 6

Air temperature 15.0° C
Dewpoint 11.0° C

Last reported at 2016-Feb-13 07:37 UTC.
Time now 2016-Feb-13 08:56 UTC

Location: N 19°50' W 155°46'.
View on Google Maps.

See reports from other nearby stations

  
Tides and Currents Weather Stations Pressure Air Temp Water Temp Dewpoint Dewpoint Depression Visibility Wind Speed Wind Dir Waves Ship Positions
date/time (UTC)wind fromknots sea level pressurealtimeterstation pressurevisibilityair tempwater tempwave heightnotes
2016-Feb-13 07:37 103 4 gusting 6 15.0
2016-Feb-13 06:37 131 6 gusting 6 15.0
2016-Feb-13 05:37 120 1 gusting 4 16.7
2016-Feb-13 04:37 286 3 gusting 8 18.3
2016-Feb-13 03:37 287 6 gusting 11 21.1
2016-Feb-13 02:37 277 6 gusting 13 23.3
2016-Feb-13 01:37 285 6 gusting 12 22.8
2016-Feb-13 00:37 311 6 gusting 16 22.2
2016-Feb-12 23:37 306 5 gusting 12 22.8
2016-Feb-12 22:37 291 5 gusting 10 22.2
2016-Feb-12 21:37 302 2 gusting 8 21.7
2016-Feb-12 20:37 322 4 gusting 9 21.1
2016-Feb-12 19:37 294 3 gusting 6 19.4
2016-Feb-12 18:37 329 0 gusting 6 18.3
2016-Feb-12 17:37 147 6 gusting 8 12.2
2016-Feb-12 16:37 128 6 gusting 7 11.1
2016-Feb-12 15:37 126 6 gusting 7 11.1
2016-Feb-12 14:37 124 6 gusting 6 11.1
2016-Feb-12 13:37 123 6 gusting 7 11.7
2016-Feb-12 12:37 114 4 gusting 6 11.7
2016-Feb-12 11:37 153 5 gusting 10 13.9
2016-Feb-12 10:37 194 5 gusting 8 15.0
2016-Feb-12 09:37 191 3 gusting 7 15.6
2016-Feb-12 08:37 119 5 gusting 8 14.4
2016-Feb-12 07:37 146 3 gusting 5 14.4
2016-Feb-12 06:37 201 0 gusting 10 15.6
2016-Feb-12 05:37 175 5 gusting 10 15.0
2016-Feb-12 04:37 001 3 gusting 13 16.1
2016-Feb-12 03:37 014 10 gusting 15 18.3
2016-Feb-12 02:37 022 10 gusting 17 21.1
2016-Feb-12 01:37 322 6 gusting 19 22.8
2016-Feb-12 00:37 340 6 gusting 17 23.9
2016-Feb-11 23:37 027 6 gusting 14 23.3
2016-Feb-11 22:37 004 7 gusting 19 22.8
2016-Feb-11 21:37 009 13 gusting 19 22.2
2016-Feb-11 20:37 349 8 gusting 16 21.7
2016-Feb-11 19:37 345 4 gusting 7 20.0
2016-Feb-11 14:37 166 8 gusting 11 12.8
2016-Feb-11 13:37 169 8 gusting 12 12.2
2016-Feb-11 12:37 182 6 gusting 13 12.8
2016-Feb-11 11:37 180 5 gusting 9 12.2
2016-Feb-11 10:37 254 3 gusting 8 12.8
2016-Feb-11 09:37 144 5 gusting 7 12.8
2016-Feb-11 08:37 192 5 gusting 6 12.8